Garden City, KS

11:17 AM CDT on March 24, 2017 (GMT -0500)
Garden City Regional

Weather History for KGCK - September, 2013

Change the Weather History Date:

Sunday, September 1, 2013

  Actual Average Record
Temperature  
Mean Temperature 76 °F 74 °F  
Max Temperature 87 °F 87 °F 106 °F (2011)
Min Temperature 64 °F 60 °F 48 °F (1949)
Degree Days  
Heating Degree Days 0 0  
Month to date heating degree days 0 0  
Since 1 July heating degree days 0 4  
Cooling Degree Days 11 9  
Month to date cooling degree days 11 9  
Year to date cooling degree days 1353 1125  
Growing Degree Days 26 (Base 50)    
Moisture  
Dew Point 59 °F    
Average Humidity 59    
Maximum Humidity 87    
Minimum Humidity 30    
Precipitation  
Precipitation 0.03 in 0.06 in 0.37 in (1963)
Month to date precipitation 0.03 0.06  
Year to date precipitation 10.20 15.71  
Sea Level Pressure  
Sea Level Pressure 29.94 in    
Wind  
Wind Speed 11 mph (NNE)    
Max Wind Speed 28 mph    
Max Gust Speed 36 mph    
Visibility 10 miles    
Events Rain , Thunderstorm    
T = Trace of Precipitation, MM = Missing Value Source: NWS Daily Summary

Daily Weather History Graph

Daily Weather History Graph

Search for Another Location

Airport or City:

Trip Planner

Search our weather history database for the weather conditions in past years. The results will help you decide how hot, cold, wet, or windy it might be!

Date:

Astronomy

Sep. 01, 2013 Rise Set
Actual Time 7:13 AM CDT 8:11 PM CDT
Civil Twilight 6:46 AM CDT 8:38 PM CDT
Nautical Twilight 6:14 AM CDT 9:10 PM CDT
Astronomical Twilight 5:40 AM CDT 9:43 PM CDT
Moon 3:38 AM CDT (9/1) 5:48 PM CDT (9/1)
Length of Visible Light 13h 52m
Length of Day
12h 58m
Waning Crescent, 13% of the Moon is Illuminated
Sep 1
Waning Crescent
Sep 5
New
Sep 12
First Quarter
Sep 19
Full
Sep 26
Last Quarter

Hourly Weather History & Observations

Time (CDT) Temp. Heat Index Dew Point Humidity Pressure Visibility Wind Dir Wind Speed Gust Speed Precip Events Conditions
12:54 AM 70.0 °F - 64.0 °F 81% 29.86 in 10.0 mi NNW 25.3 mph 34.5 mph 0.01 in Rain , Thunderstorm Light Rain
1:01 AM 71.6 °F - 64.4 °F 78% 29.98 in 10.0 mi NNW 21.9 mph 32.2 mph 0.00 in Rain Light Rain
1:16 AM 69.8 °F - 62.6 °F 78% 30.00 in 10.0 mi North 24.2 mph - 0.00 in Thunderstorm Mostly Cloudy
1:54 AM 69.1 °F - 64.0 °F 84% 29.89 in 10.0 mi North 19.6 mph 28.8 mph 0.02 in Rain , Thunderstorm Light Rain
2:07 AM 69.8 °F - 64.4 °F 83% 30.00 in 10.0 mi North 16.1 mph - 0.00 in Rain Light Rain
2:54 AM 69.1 °F - 64.0 °F 84% 29.88 in 10.0 mi North 11.5 mph - 0.00 in   Clear
3:54 AM 69.1 °F - 64.0 °F 84% 29.85 in 10.0 mi NE 11.5 mph - N/A   Mostly Cloudy
4:54 AM 70.0 °F - 63.0 °F 78% 29.81 in 10.0 mi NE 9.2 mph - 0.00 in   Mostly Cloudy
5:54 AM 70.0 °F - 63.0 °F 78% 29.82 in 10.0 mi North 6.9 mph - N/A   Clear
6:54 AM 68.0 °F - 63.0 °F 84% 29.85 in 10.0 mi North 11.5 mph - N/A   Clear
7:54 AM 66.9 °F - 63.0 °F 87% 29.90 in 10.0 mi North 10.4 mph - N/A   Clear
8:54 AM 71.1 °F - 63.0 °F 75% 29.92 in 10.0 mi North 12.7 mph - N/A   Clear
9:54 AM 73.9 °F - 64.0 °F 71% 29.95 in 10.0 mi North 16.1 mph - N/A   Clear
10:54 AM 78.1 °F - 64.9 °F 64% 29.97 in 10.0 mi NE 16.1 mph - N/A   Clear
11:54 AM 80.1 °F 81.1 °F 61.0 °F 52% 29.99 in 10.0 mi ENE 19.6 mph - N/A   Clear
12:54 PM 82.0 °F 82.1 °F 59.0 °F 45% 30.00 in 10.0 mi NE 18.4 mph 25.3 mph 0.01 in   Clear
1:54 PM 84.0 °F 83.5 °F 57.9 °F 41% 29.99 in 10.0 mi NE 13.8 mph - N/A   Clear
2:54 PM 86.0 °F 84.7 °F 55.9 °F 36% 29.97 in 10.0 mi ENE 13.8 mph - N/A   Clear
3:54 PM 87.1 °F 85.1 °F 54.0 °F 32% 29.96 in 10.0 mi NE 12.7 mph - N/A   Clear
4:54 PM 84.9 °F - 52.0 °F 32% 29.95 in 10.0 mi ENE 10.4 mph - N/A   Clear
5:54 PM 86.0 °F - 52.0 °F 31% 29.94 in 10.0 mi ENE 9.2 mph - N/A   Clear
6:54 PM 84.9 °F - 51.1 °F 31% 29.94 in 10.0 mi NE 8.1 mph - N/A   Clear
7:54 PM 80.1 °F - 52.0 °F 38% 29.95 in 10.0 mi ENE 4.6 mph - N/A   Clear
8:54 PM 75.9 °F - 53.1 °F 45% 29.97 in 10.0 mi NE 5.8 mph - N/A   Clear
9:54 PM 73.0 °F - 51.1 °F 46% 30.00 in 10.0 mi NE 5.8 mph - N/A   Clear
10:54 PM 72.0 °F - 50.0 °F 46% 30.02 in 10.0 mi NE 8.1 mph - N/A   Clear
11:54 PM 66.0 °F - 51.1 °F 59% 30.04 in 10.0 mi ENE 6.9 mph - N/A   Clear